Location: *
(50.9167°S, 179.4000°W)
Time: 18:02:58
(UTC+00:00)

COSMOS 2428 - Pass Details

Date: 22 June 2024
Orbit: 843 x 857 km, 70.9° (Epoch: 18 July)

Event Time Altitude Azimuth Distance (km) Brightness Sun altitude
Exits shadow 18:35:57 - 202° (SSW) 2,941 5.1 -12.6°
Reaches altitude 10° 18:37:39 10° 190° (S) 2,524 4.9 -12.3°
Maximum altitude 18:41:13 16° 152° (SSE) 2,099 4.8 -11.8°
Drops below altitude 10° 18:44:46 10° 114° (ESE) 2,509 5.8 -11.3°
Sets 18:48:14 0° 93° (E) 3,437 7.1 -10.8°
